FW8325 Weather Reports


Display with metric or nautical units.
time (UTC)temp
F
wind
direction
speed
MPH
gust
MPH
rain 1hr
in
rain 24hr
in
rain mn
in
humidity
%
barometer
mb
20260903230621 74 178 2.0 9.0 0.00 0.00 0.00 19 1012.1
20260903225610 74 225 0.0 5.0 0.00 0.00 0.00 19 1012.3
20260903224618 75 215 1.0 10.0 0.00 0.00 0.00 21 1012.5
20260903223625 74 234 4.0 11.0 0.00 0.00 0.00 21 1012.7
20260903222616 74 192 0.0 14.0 0.00 0.00 0.00 20 1012.7
20260903221622 74 219 4.0 12.0 0.00 0.00 0.00 23 1012.8
20260903220626 74 188 1.0 22.0 0.00 0.00 0.00 20 1012.9
20260903215612 73 223 1.0 10.0 0.00 0.00 0.00 22 1012.9
20260903214621 74 232 4.0 14.0 0.00 0.00 0.00 19 1013.1
20260903213629 74 225 3.0 11.0 0.00 0.00 0.00 22 1013.1
20260903212615 74 224 4.0 20.0 0.00 0.00 0.00 22 1013.2
20260903211622 73 236 1.0 14.0 0.00 0.00 0.00 21 1013.3
20260903210614 73 233 0.0 17.0 0.00 0.00 0.00 19 1013.3
20260903205623 73 195 4.0 18.0 0.00 0.00 0.00 20 1013.5
20260903204610 73 211 3.0 20.0 0.00 0.00 0.00 20 1013.6
20260903203616 73 209 2.0 17.0 0.00 0.00 0.00 22 1013.8
20260903202624 73 213 3.0 19.0 0.00 0.00 0.00 22 1014.0
20260903201629 72 243 6.0 21.0 0.00 0.00 0.00 21 1014.0
20260903200618 72 212 4.0 19.0 0.00 0.00 0.00 22 1014.2
20260903195624 69 214 1.0 6.0 0.00 0.00 0.00 32 1014.2
20260903194615 67 161 0.0 4.0 0.00 0.00 0.00 41 1014.2
20260903193623 67 40 0.0 0.0 0.00 0.00 0.00 49 1014.4
20260903192610 66 37 0.0 3.0 0.00 0.00 0.00 51 1014.6
20260903191618 66 29 0.0 3.0 0.00 0.00 0.00 51 1014.8
20260903190628 66 30 0.0 0.0 0.00 0.00 0.00 47 1014.9
20260903185617 65 30 0.0 1.0 0.00 0.00 0.00 51 1015.0
20260903184624 65 5 0.0 0.0 0.00 0.00 0.00 50 1015.1
20260903183611 65 18 0.0 0.0 0.00 0.00 0.00 48 1015.2
20260903182622 65 38 0.0 0.0 0.00 0.00 0.00 48 1015.3
20260903181628 63 45 0.0 0.0 0.00 0.00 0.00 48 1015.6
20260903180628 63 70 0.0 0.0 0.00 0.00 0.00 47 1015.6
20260903175618 63 80 0.0 0.0 0.00 0.00 0.00 48 1015.8
20260903174645 62 79 0.0 0.0 0.00 0.00 0.00 45 1015.8
20260903173612 63 69 0.0 0.0 0.00 0.00 0.00 44 1016.0
20260903172637 64 51 0.0 0.0 0.00 0.00 0.00 45 1015.9
20260903171643 63 50 0.0 0.0 0.00 0.00 0.00 47 1016.0
20260903170629 62 49 0.0 0.0 0.00 0.00 0.00 46 1016.0
20260903165618 61 74 0.0 0.0 0.00 0.00 0.00 50 1016.2
20260903164627 61 74 0.0 0.0 0.00 0.00 0.00 48 1016.3
20260903163635 61 73 0.0 0.0 0.00 0.00 0.00 46 1016.3
20260903162621 61 82 0.0 0.0 0.00 0.00 0.00 48 1016.2
20260903161629 61 82 0.0 0.0 0.00 0.00 0.00 48 1016.1
20260903160621 62 128 0.0 0.0 0.00 0.00 0.00 48 1016.1
20260903155610 61 169 0.0 0.0 0.00 0.00 0.00 49 1016.3
20260903154636 60 169 0.0 0.0 0.00 0.00 0.00 53 1016.3
20260903153618 59 170 0.0 0.0 0.00 0.00 0.00 54 1016.3
20260903152646 58 169 0.0 0.0 0.00 0.00 0.00 54 1016.3
20260903151617 58 169 0.0 0.0 0.00 0.00 0.00 57 1016.4
20260903150645 57 168 0.0 1.0 0.00 0.00 0.00 58 1016.5
20260903145616 57 121 0.0 2.0 0.00 0.00 0.00 62 1016.5
20260903144624 57 142 0.0 2.0 0.00 0.00 0.00 59 1016.3
20260903143650 58 146 0.0 0.0 0.00 0.00 0.00 49 1016.3
20260903142621 56 221 0.0 0.0 0.00 0.00 0.00 53 1016.3
20260903141647 55 269 0.0 0.0 0.00 0.00 0.00 57 1016.1
20260903140614 53 274 0.0 0.0 0.00 0.00 0.00 59 1016.1
20260903135638 52 360 0.0 0.0 0.00 0.00 0.00 62 1016.2
20260903134622 51 271 0.0 0.0 0.00 0.00 0.00 62 1016.1
20260903133612 50 270 0.0 0.0 0.00 0.00 0.00 63 1016.0
20260903132617 49 271 0.0 0.0 0.00 0.00 0.00 64 1015.9
20260903131623 48 266 0.0 0.0 0.00 0.00 0.00 64 1015.8
20260903130611 48 273 0.0 0.0 0.00 0.00 0.00 64 1015.7
20260903125622 48 278 0.0 0.0 0.00 0.00 0.00 63 1015.6
20260903124630 48 279 0.0 0.0 0.00 0.00 0.00 64 1015.4
20260903123618 47 273 0.0 0.0 0.00 0.00 0.00 64 1015.4
20260903122626 48 274 0.0 0.0 0.00 0.00 0.00 62 1015.4
20260903121617 48 265 0.0 0.0 0.00 0.00 0.00 59 1015.3
20260903120619 49 275 0.0 0.0 0.00 0.00 0.00 58 1015.2
20260903115624 49 276 0.0 0.0 0.00 0.00 0.00 54 1015.2
20260903114629 49 273 0.0 0.0 0.00 0.00 0.00 58 1015.2
20260903113615 49 273 0.0 0.0 0.00 0.00 0.00 57 1015.0
20260903112625 50 267 0.0 0.0 0.00 0.00 0.00 53 1014.8
20260903111632 51 271 0.0 0.0 0.00 0.00 0.00 52 1014.8
20260903110617 51 273 0.0 0.0 0.00 0.00 0.00 55 1014.7
20260903105625 51 271 0.0 1.0 0.00 0.00 0.00 54 1014.6
20260903104630 51 275 0.0 0.0 0.00 0.00 0.00 53 1014.6
20260903103619 50 275 0.0 0.0 0.00 0.00 0.00 53 1014.4
20260903102625 50 273 0.0 0.0 0.00 0.00 0.00 53 1014.4
20260903101632 51 276 0.0 0.0 0.00 0.00 0.00 53 1014.4
20260903100618 51 275 0.0 0.0 0.00 0.00 0.00 56 1014.2
20260903095628 51 279 0.0 0.0 0.00 0.00 0.00 57 1014.2
20260903094617 52 202 0.0 0.0 0.00 0.00 0.00 57 1014.2
20260903093643 53 202 0.0 0.0 0.00 0.00 0.00 58 1014.1
20260903092650 54 202 0.0 0.0 0.00 0.00 0.00 55 1014.1
20260903091616 55 202 0.0 0.0 0.00 0.00 0.00 52 1014.2
20260903090627 56 201 0.0 0.0 0.00 0.00 0.00 52 1014.0
20260903085616 56 202 0.0 0.0 0.00 0.00 0.00 51 1014.1
20260903084624 56 205 0.0 0.0 0.00 0.00 0.00 51 1014.2
20260903083610 56 209 0.0 0.0 0.00 0.00 0.00 52 1014.4
20260903082622 56 206 0.0 0.0 0.00 0.00 0.00 52 1014.5
20260903081629 56 215 0.0 0.0 0.00 0.00 0.00 51 1014.4
20260903080617 56 202 0.0 0.0 0.00 0.00 0.00 54 1014.5
20260903075622 56 203 0.0 0.0 0.00 0.00 0.00 56 1014.4
20260903074613 56 245 0.0 0.0 0.00 0.00 0.00 54 1014.4
20260903073620 56 287 0.0 0.0 0.00 0.00 0.00 57 1014.4
20260903072628 56 287 0.0 0.0 0.00 0.00 0.00 54 1014.3
20260903071637 57 288 0.0 0.0 0.00 0.00 0.00 51 1014.3
20260903070627 57 288 0.0 0.0 0.00 0.00 0.00 49 1014.3
20260903065616 58 313 0.0 0.0 0.00 0.00 0.00 42 1014.4
20260903064622 57 331 0.0 0.0 0.00 0.00 0.00 44 1014.4
20260903063610 58 321 0.0 0.0 0.00 0.00 0.00 47 1014.4
20260903062618 59 329 0.0 1.0 0.00 0.00 0.00 51 1014.4
20260903061629 58 268 0.0 0.0 0.00 0.00 0.00 43 1014.3
20260903060632 58 261 0.0 0.0 0.00 0.00 0.00 39 1014.1
20260903055618 59 263 0.0 0.0 0.00 0.00 0.00 37 1014.2
20260903054626 59 263 0.0 1.0 0.00 0.00 0.00 38 1014.1
20260903053632 59 261 0.0 1.0 0.00 0.00 0.00 37 1014.2
20260903052624 59 279 0.0 0.0 0.00 0.00 0.00 32 1014.2
20260903051610 59 300 0.0 0.0 0.00 0.00 0.00 32 1014.2
20260903050616 60 209 0.0 0.0 0.00 0.00 0.00 30 1014.1
20260903045622 61 208 0.0 0.0 0.00 0.00 0.00 30 1014.0
20260903044625 62 208 0.0 0.0 0.00 0.00 0.00 31 1014.0
20260903043615 62 208 0.0 0.0 0.00 0.00 0.00 26 1014.1
20260903042621 62 208 0.0 0.0 0.00 0.00 0.00 29 1014.0
20260903041627 63 220 0.0 0.0 0.00 0.00 0.00 25 1013.9
20260903040618 64 252 0.0 4.0 0.00 0.00 0.00 25 1013.9
20260903035624 62 235 0.0 1.0 0.00 0.00 0.00 31 1013.9
20260903034611 61 259 0.0 0.0 0.00 0.00 0.00 28 1013.7
20260903033638 61 274 0.0 0.0 0.00 0.00 0.00 28 1013.6
20260903032625 60 262 0.0 0.0 0.00 0.00 0.00 29 1013.6
20260903031636 61 261 0.0 0.0 0.00 0.00 0.00 29 1013.5
20260903030623 60 279 0.0 0.0 0.00 0.00 0.00 30 1013.4
20260903025632 61 284 0.0 0.0 0.00 0.00 0.00 29 1013.4
20260903024618 61 284 0.0 0.0 0.00 0.00 0.00 32 1013.4
20260903023645 61 262 0.0 0.0 0.00 0.00 0.00 33 1013.3
20260903022616 61 271 0.0 1.0 0.00 0.00 0.00 34 1013.3
20260903021624 62 269 0.0 0.0 0.00 0.00 0.00 34 1013.2
20260903020632 64 263 0.0 0.0 0.00 0.00 0.00 35 1013.2
20260903015640 66 265 0.0 0.0 0.00 0.00 0.00 36 1013.4
20260903014643 68 250 0.0 0.0 0.00 0.00 0.00 32 1013.4
20260903013611 69 250 0.0 0.0 0.00 0.00 0.00 29 1013.4
20260903012618 69 250 0.0 0.0 0.00 0.00 0.00 26 1013.5
20260903011626 70 250 0.0 0.0 0.00 0.00 0.00 26 1013.6
20260903010614 70 288 0.0 0.0 0.00 0.00 0.00 26 1013.6
20260903005628 70 238 0.0 3.0 0.00 0.00 0.00 26 1013.6
20260903004615 70 252 0.0 11.0 0.00 0.00 0.00 26 1013.6
20260903003624 71 259 1.0 9.0 0.00 0.00 0.00 25 1013.6
20260903002612 71 274 2.0 9.0 0.00 0.00 0.00 27 1013.6
20260903001624 72 219 3.0 14.0 0.00 0.00 0.00 26 1013.5
20260903000626 72 234 5.0 12.0 0.00 0.00 0.00 25 1013.7
20260902235615 73 241 5.0 22.0 0.00 0.00 0.00 27 1013.7
20260902234622 72 259 5.0 22.0 0.00 0.00 0.00 26 1013.6
20260902233612 73 273 4.0 20.0 0.00 0.00 0.00 25 1013.6
20260902232619 73 242 4.0 16.0 0.00 0.00 0.00 27 1013.6
20260902231627 73 235 5.0 16.0 0.00 0.00 0.00 27 1013.7